Wind_Speed
5 3 4 4 4 5 3 3 4 6 3 1 2 1 2 3 3 3 2 3 4 6 10 19 21 22 20 18 15 13 12 11 10 10 9 8 6 5 4 4 5 6 5 2 1 0 1 1 3
3 2 3 2 4 4 4 3 4 4 3 2 2 1 1 2 3 4 2 1 7 6 9 18 20 21 21 19 17 15 13 12 11 10 9 9 8 7 6 6 9 9 6 4 3 1 1 1 2
3 2 3 3 3 3 3 2 2 4 5 3 2 2 1 2 3 2 1 2 6 7 9 17 20 20 21 19 18 16 14 13 12 11 10 9 10 9 9 10 11 10 8 6 6 5 4 4 4
1 2 1 4 2 0 3 2 6 2 2 3 1 4 2 3 2 2 4 2 5 7 9 12 19 21 22 21 19 17 16 14 13 13 12 11 11 12 11 13 13 10 10 8 8 6 6 6 5
3 1 3 2 4 2 4 6 4 1 0 5 3 3 7 5 2 2 4 3 4 7 9 12 15 21 22 21 21 19 18 16 15 15 13 13 14 10 9 11 11 11 10 9 9 7 7 6 6
3 1 4 1 4 1 2 5 2 3 2 1 1 1 2 3 4 3 5 6 5 7 9 12 15 17 20 22 23 22 20 19 17 16 16 15 17 12 9 10 11 11 10 10 9 8 6 6 6
2 3 3 3 4 3 2 3 3 3 8 2 0 1 3 5 5 5 7 9 7 8 10 12 15 17 18 22 23 23 23 22 20 18 17 18 18 15 13 9 11 11 10 9 8 8 6 7 8
3 3 3 3 2 2 4 2 0 3 4 3 3 2 2 5 11 11 12 12 10 12 13 13 15 17 19 22 23 23 23 23 23 21 20 22 21 19 17 12 13 12 11 10 9 8 8 8 7
1 4 2 3 5 2 2 5 2 5 9 13 9 16 21 20 20 15 16 15 14 15 17 17 17 17 20 22 23 24 24 24 24 23 25 24 24 23 21 16 15 14 12 11 9 9 10 9 9
3 3 5 2 1 2 6 3 9 8 18 24 23 16 8 18 15 19 21 21 19 18 18 19 20 19 20 22 24 25 25 26 26 26 27 27 27 26 23 20 19 18 16 14 12 12 12 11 11
4 5 2 8 12 7 5 12 8 8 5 21 25 25 23 23 21 20 21 24 26 21 18 18 19 20 22 23 23 26 27 28 29 29 28 28 29 29 28 24 22 21 20 18 16 15 15 14 13
3 10 8 7 17 9 4 9 9 14 25 23 26 24 25 25 17 16 19 17 19 20 20 18 19 20 21 24 25 25 26 27 29 30 29 31 31 29 29 27 25 24 22 20 19 17 18 17 15
4 3 8 12 18 20 17 15 11 26 24 16 18 18 19 14 17 15 17 18 17 18 18 20 20 22 21 22 25 27 27 26 27 28 30 31 31 32 32 27 27 26 24 23 22 20 21 19 17
3 5 11 13 23 21 11 13 3 19 19 14 16 14 21 21 14 17 15 12 15 19 17 17 18 19 22 22 22 25 28 28 28 27 27 31 34 34 34 29 29 28 27 25 24 23 22 21 20
4 4 8 18 9 8 6 4 7 14 15 25 29 27 20 9 3 4 4 2 3 3 12 14 15 15 19 22 22 22 25 28 29 29 27 26 28 31 32 33 30 28 27 27 27 26 26 25 24
4 1 3 6 4 1 3 6 9 16 18 29 32 25 5 3 6 7 5 5 6 6 7 10 13 11 12 18 22 22 22 24 27 27 26 25 26 26 29 30 30 29 30 30 29 28 28 28 27
2 3 5 7 2 3 3 6 14 17 20 30 28 12 6 11 14 14 12 10 10 12 11 9 7 11 11 13 16 19 20 21 22 24 25 26 26 27 30 30 30 31 31 32 31 30 29 30 29
5 4 4 4 4 2 3 9 8 19 26 19 10 11 16 16 19 15 14 12 12 8 5 5 9 9 13 12 12 15 18 16 17 20 22 24 25 27 30 31 31 31 32 34 34 33 31 31 30
3 3 4 5 9 3 7 5 9 18 24 9 20 19 18 20 17 17 17 15 16 15 12 8 1 4 8 10 10 12 15 16 14 15 16 19 22 24 26 29 29 30 33 34 34 34 34 33 32
6 4 6 5 6 1 8 8 11 15 7 8 25 20 17 16 17 20 21 22 25 24 22 18 13 7 3 1 1 3 6 11 14 13 13 16 19 22 23 25 28 29 31 33 34 35 37 36 36
3 4 5 7 5 4 3 7 7 2 19 22 20 20 17 18 20 21 22 24 25 28 29 26 22 16 11 6 2 4 5 7 9 9 12 12 16 20 22 24 25 28 30 32 33 35 37 39 40
3 4 6 4 2 3 3 5 6 1 8 9 15 18 18 18 19 20 22 24 27 27 25 25 25 24 22 17 12 10 7 4 2 4 8 10 14 17 17 21 23 25 29 31 31 32 36 38 41
8 3 2 3 3 2 5 1 7 9 4 6 13 19 18 16 17 19 20 20 20 21 22 22 21 20 21 20 18 15 12 7 3 6 8 9 10 9 12 17 21 23 26 28 29 32 34 38 41
4 2 3 3 3 1 8 6 5 5 7 6 13 19 19 16 15 16 16 16 19 18 19 19 19 19 18 17 16 15 13 11 7 6 6 7 8 9 10 9 13 19 23 26 28 30 32 35 38
3 4 2 3 1 6 3 2 8 3 5 11 16 22 18 14 13 13 14 15 15 15 15 15 15 15 16 16 15 15 14 13 12 12 12 11 9 10 12 13 14 16 15 21 26 30 33 34 37
6 5 4 5 3 5 6 5 4 8 25 28 24 21 15 12 10 10 10 11 12 13 12 11 11 12 12 12 14 15 15 16 16 16 15 14 14 14 14 15 17 19 17 17 19 25 30 34 36
4 4 3 2 1 2 4 4 5 8 11 17 17 14 12 10 7 6 7 9 10 10 10 11 13 13 13 13 12 12 13 14 15 16 16 17 17 17 15 15 15 16 15 17 19 22 25 29 34
3 5 2 2 1 5 5 4 4 5 9 7 9 12 10 7 4 1 3 6 6 7 9 10 11 13 14 14 14 13 12 13 15 16 17 18 19 20 21 21 20 18 17 17 18 21 23 27 30
1 1 2 4 4 4 2 5 5 7 10 10 14 15 14 11 7 6 4 4 4 4 6 9 11 12 13 14 14 15 16 16 17 18 20 21 21 22 23 25 25 26 24 22 21 20 22 24 27
6 6 6 3 5 3 3 9 3 7 14 18 19 18 16 15 11 8 6 3 0 3 4 7 11 14 16 17 17 19 22 24 25 25 24 25 26 26 27 27 28 28 28 28 27 26 24 25 28
Wind_Direction
320 329 343 2 54 62 326 52 120 37 34 68 343 7 217 245 218 213 162 223 247 206 193 197 199 200 202 203 208 210 209 208 205 201 200 200 198 196 194 190 182 225 218 251 183 268 86 110 132
7 354 7 358 82 69 301 145 102 163 164 12 300 14 314 5 74 133 144 64 245 222 217 201 203 205 210 214 215 219 218 214 210 208 210 216 218 220 208 193 205 220 229 241 251 246 215 219 168
78 15 8 95 117 131 180 71 87 55 108 86 10 290 298 122 96 292 257 267 242 231 215 206 207 208 214 222 223 221 222 220 221 216 220 232 242 239 227 209 219 229 235 232 240 244 241 241 232
80 60 268 85 254 64 93 73 64 51 88 94 17 316 222 234 282 314 325 263 246 238 226 207 211 213 215 221 226 228 225 222 225 227 227 235 246 249 238 217 231 237 237 239 240 243 244 252 251
41 12 48 1 286 141 85 80 69 303 248 167 169 293 315 219 177 35 22 343 250 238 230 224 216 217 220 222 226 226 227 228 228 235 244 245 247 256 240 221 232 242 248 240 241 239 241 238 238
359 32 51 6 305 158 76 99 39 338 348 239 209 251 317 199 201 251 335 341 297 250 242 228 228 224 224 225 226 228 229 230 231 235 239 243 251 248 257 249 240 242 241 236 240 240 236 229 216
43 77 220 283 287 353 151 115 71 8 333 340 168 323 286 218 269 276 296 314 292 265 252 244 233 231 232 230 229 229 231 233 235 235 237 240 243 248 255 256 248 242 235 237 236 232 221 203 194
356 91 303 277 242 282 170 144 174 329 295 332 320 275 259 275 297 290 294 294 278 266 264 254 248 239 235 236 233 231 233 231 232 232 234 235 243 248 252 261 258 242 234 233 231 230 211 200 202
359 60 265 276 11 346 31 30 1 315 280 293 276 285 294 298 286 295 299 300 285 267 258 259 253 247 241 240 237 234 233 233 231 227 231 236 241 247 252 259 263 254 244 239 232 225 216 213 213
113 118 237 135 18 317 320 350 328 321 304 292 291 290 270 325 292 299 295 296 298 296 273 266 261 253 245 240 238 238 238 237 235 231 230 232 237 244 250 255 257 253 248 246 240 229 221 220 218
184 193 226 309 342 333 323 311 303 318 291 279 290 299 302 305 301 297 298 295 295 298 291 276 275 269 255 245 242 238 238 237 238 235 231 228 235 241 245 248 252 247 242 238 237 233 230 228 230
211 230 260 291 313 307 282 294 297 282 275 295 289 292 293 303 305 308 299 295 291 283 289 290 278 273 272 261 251 247 243 241 240 243 233 230 233 240 246 247 249 249 245 239 237 230 231 230 229
225 260 275 287 288 289 289 284 272 286 313 316 309 299 297 304 314 313 320 290 280 293 300 286 282 275 272 268 258 254 253 249 248 247 246 241 238 240 250 248 247 248 245 241 238 234 234 233 234
327 322 298 290 279 276 257 268 327 287 329 318 327 331 328 330 326 300 290 277 260 256 262 282 278 278 271 267 266 258 255 256 255 254 251 250 248 246 248 251 253 249 245 243 239 238 236 235 235
336 330 313 275 276 222 231 318 232 292 316 311 313 320 334 24 339 34 58 314 253 281 251 232 254 277 267 264 265 264 257 253 257 261 262 258 252 252 248 256 253 250 245 243 238 236 233 233 234
293 51 326 284 178 194 124 259 268 298 303 305 308 327 8 69 51 41 18 334 305 287 268 243 228 243 273 268 266 264 260 255 254 257 262 256 256 256 254 257 258 257 252 246 242 240 237 235 236
305 231 205 306 321 129 156 253 266 304 299 293 315 28 82 78 49 35 20 357 327 295 274 253 244 224 239 256 261 262 262 259 258 257 253 249 248 248 246 259 264 261 257 250 248 246 242 240 236
219 219 285 267 276 139 225 250 278 279 294 293 45 92 88 69 48 40 36 33 34 27 350 278 255 232 216 235 249 246 248 250 254 254 253 248 245 246 248 256 261 260 257 254 252 250 247 244 240
287 256 258 268 277 327 279 265 266 285 286 351 111 101 86 70 61 57 56 55 56 57 60 68 145 232 245 243 242 240 244 243 246 246 250 251 250 252 253 254 255 259 257 257 256 253 249 244 237
224 242 279 285 278 334 280 288 288 271 295 142 132 115 104 92 76 65 63 60 58 58 58 59 61 67 87 176 236 256 240 243 249 245 253 253 259 261 260 258 257 260 261 258 253 252 250 244 239
238 219 241 232 315 310 338 301 263 325 89 98 104 108 95 87 81 73 66 63 62 58 56 55 54 53 57 59 36 284 256 238 240 242 244 254 255 262 268 266 263 260 258 260 260 256 251 247 242
255 219 219 231 80 228 46 280 281 146 91 82 94 95 93 90 85 76 68 65 59 57 56 55 55 55 53 48 45 47 42 42 344 277 263 270 265 254 261 264 263 261 260 260 261 262 258 253 245
221 106 192 228 215 75 268 254 259 108 146 137 120 109 98 92 88 83 74 66 61 54 46 43 42 46 47 45 46 46 46 36 342 295 304 298 280 267 267 260 255 257 256 261 260 260 257 256 253
143 64 330 59 109 330 233 180 265 177 175 150 126 114 107 99 89 80 73 63 51 40 32 26 23 25 29 31 34 37 40 36 23 3 331 317 307 296 275 263 275 259 252 256 260 262 261 260 258
82 86 318 348 16 217 171 187 239 40 127 136 123 117 110 103 92 80 65 44 38 32 26 24 24 24 22 16 14 19 27 27 27 25 17 1 331 301 289 288 282 274 264 256 258 260 260 260 260
174 168 160 237 235 263 346 263 298 71 87 104 113 112 110 102 92 80 51 34 25 23 17 17 23 27 27 25 25 22 17 17 19 23 22 15 11 6 349 321 294 281 282 276 261 259 259 259 258
187 173 180 126 71 54 227 285 98 81 90 103 119 120 119 117 105 67 25 22 16 8 25 38 37 41 44 42 39 31 25 17 17 16 9 8 5 3 358 352 346 334 313 291 279 269 266 261 259
142 157 92 29 228 243 274 262 211 174 143 136 140 137 139 144 153 21 338 346 353 5 14 27 33 33 30 29 26 23 20 13 5 356 353 354 352 349 346 345 345 343 339 332 313 291 278 272 264
90 223 212 171 177 202 220 256 181 160 162 165 173 172 182 189 215 240 252 287 338 19 27 22 22 22 17 11 9 1 355 355 350 347 346 342 339 334 334 335 335 335 335 332 324 313 308 291 276
185 212 184 184 261 251 226 257 140 155 171 175 189 199 206 212 222 239 216 176 112 24 15 12 7 3 358 351 349 349 346 345 342 339 336 332 329 328 326 323 320 320 322 321 319 315 312 305 297
Height
1541 1541 1539 1539 1550 1554 1558 1547 1540 1541 1541 1540 1540 1540 1541 1540 1541 1553 1541 1540 1539 1541 1543 1545 1547 1549 1551 1553 1555 1556 1558 1559 1561 1561 1562 1563 1564 1565 1566 1567 1567 1567 1568 1568 1568 1569 1570 1570 1570
1541 1541 1540 1540 1557 1569 1561 1542 1542 1538 1538 1539 1539 1539 1539 1539 1539 1539 1540 1540 1539 1540 1542 1544 1546 1548 1550 1552 1554 1555 1557 1558 1559 1560 1561 1562 1563 1564 1565 1566 1566 1567 1567 1567 1568 1568 1568 1569 1569
1541 1541 1541 1545 1558 1562 1558 1542 1540 1538 1538 1538 1539 1539 1538 1538 1538 1538 1539 1539 1539 1540 1541 1543 1545 1547 1548 1550 1552 1554 1555 1556 1558 1559 1561 1561 1562 1563 1564 1564 1565 1565 1566 1567 1567 1568 1568 1569 1569
1541 1542 1543 1552 1551 1541 1540 1539 1537 1538 1538 1538 1539 1539 1538 1537 1537 1538 1538 1538 1538 1539 1540 1542 1544 1546 1547 1548 1550 1551 1553 1555 1556 1557 1559 1560 1561 1561 1562 1563 1563 1564 1564 1565 1566 1567 1567 1568 1568
1541 1542 1552 1554 1547 1537 1537 1537 1537 1537 1537 1537 1537 1538 1537 1537 1537 1537 1537 1537 1537 1537 1539 1540 1542 1543 1545 1547 1548 1550 1552 1553 1555 1556 1557 1558 1559 1560 1560 1561 1562 1562 1562 1563 1564 1565 1566 1566 1566
1542 1543 1559 1561 1549 1537 1537 1536 1537 1538 1536 1537 1537 1537 1537 1536 1536 1536 1536 1537 1536 1536 1536 1538 1539 1540 1542 1544 1546 1548 1550 1552 1553 1555 1556 1557 1557 1558 1559 1560 1560 1561 1562 1562 1563 1564 1564 1565 1565
1544 1549 1556 1548 1544 1540 1537 1536 1537 1538 1537 1537 1537 1537 1536 1535 1536 1535 1535 1535 1535 1534 1535 1535 1536 1538 1540 1541 1543 1545 1547 1549 1551 1553 1555 1556 1556 1557 1558 1559 1560 1560 1560 1561 1562 1563 1563 1564 1565
1544 1546 1549 1546 1547 1541 1536 1535 1536 1537 1536 1537 1538 1537 1536 1535 1535 1534 1534 1533 1533 1532 1532 1533 1534 1536 1537 1537 1539 1541 1543 1545 1548 1550 1552 1553 1554 1555 1556 1557 1558 1558 1559 1560 1561 1561 1563 1563 1563
1545 1555 1559 1547 1544 1541 1537 1536 1536 1536 1536 1535 1535 1535 1535 1535 1533 1533 1532 1531 1530 1530 1529 1529 1530 1532 1533 1535 1536 1538 1540 1541 1544 1546 1547 1549 1550 1552 1553 1555 1556 1557 1557 1558 1559 1560 1560 1561 1562
1545 1557 1548 1542 1541 1541 1538 1537 1537 1536 1534 1531 1531 1530 1531 1531 1531 1531 1530 1528 1528 1528 1527 1527 1527 1528 1530 1531 1533 1535 1536 1538 1540 1541 1544 1545 1547 1548 1550 1552 1553 1554 1555 1556 1557 1558 1559 1559 1560
1543 1550 1541 1537 1538 1538 1537 1535 1536 1535 1533 1529 1527 1527 1528 1527 1527 1527 1526 1524 1523 1523 1524 1524 1524 1524 1525 1526 1528 1530 1532 1534 1536 1537 1539 1542 1543 1544 1546 1548 1549 1551 1553 1554 1555 1557 1557 1558 1559
1543 1539 1540 1538 1538 1537 1536 1535 1534 1532 1527 1528 1524 1525 1524 1524 1524 1523 1521 1520 1519 1518 1518 1519 1520 1521 1522 1522 1523 1525 1527 1529 1531 1533 1535 1537 1539 1540 1541 1544 1546 1548 1549 1551 1553 1555 1555 1557 1558
1538 1538 1537 1537 1535 1534 1534 1533 1534 1528 1524 1524 1522 1522 1521 1522 1522 1520 1517 1516 1517 1515 1515 1515 1515 1516 1517 1519 1519 1520 1522 1525 1527 1530 1531 1533 1535 1535 1536 1540 1542 1544 1546 1547 1549 1551 1552 1554 1555
1538 1537 1536 1534 1530 1530 1530 1529 1531 1524 1523 1521 1521 1520 1520 1519 1517 1515 1512 1510 1510 1510 1511 1512 1511 1511 1512 1514 1516 1517 1518 1520 1522 1525 1528 1530 1532 1533 1532 1534 1537 1540 1542 1544 1546 1547 1549 1550 1552
1536 1537 1534 1525 1525 1524 1523 1529 1528 1522 1521 1517 1516 1518 1518 1517 1514 1511 1511 1509 1508 1506 1505 1506 1508 1509 1509 1510 1511 1513 1516 1517 1518 1520 1523 1525 1526 1529 1531 1532 1533 1534 1537 1539 1541 1543 1544 1546 1548
1537 1538 1542 1525 1524 1524 1524 1534 1521 1520 1519 1514 1511 1515 1514 1514 1512 1511 1509 1508 1507 1506 1504 1504 1504 1505 1507 1508 1508 1509 1510 1512 1514 1516 1517 1520 1521 1524 1526 1528 1530 1533 1534 1535 1535 1538 1539 1541 1542
1540 1546 1541 1532 1522 1524 1526 1531 1520 1517 1516 1510 1511 1513 1513 1513 1511 1510 1507 1505 1504 1503 1502 1501 1502 1503 1505 1506 1507 1507 1507 1508 1510 1512 1514 1516 1518 1520 1522 1525 1528 1529 1529 1530 1532 1534 1536 1537 1538
1543 1541 1535 1536 1525 1523 1527 1527 1520 1516 1511 1508 1513 1514 1512 1511 1511 1509 1507 1505 1503 1501 1500 1499 1499 1500 1501 1503 1505 1505 1506 1506 1507 1509 1511 1512 1514 1515 1517 1520 1522 1524 1524 1526 1528 1530 1532 1533 1535
1532 1534 1536 1529 1521 1522 1522 1522 1517 1511 1507 1508 1510 1514 1515 1514 1514 1510 1508 1506 1504 1502 1500 1499 1498 1498 1499 1500 1501 1502 1505 1505 1507 1508 1508 1509 1511 1512 1513 1513 1514 1516 1518 1520 1524 1526 1527 1529 1530
1532 1534 1536 1528 1520 1522 1520 1520 1511 1504 1504 1505 1507 1510 1512 1513 1512 1512 1509 1508 1505 1504 1502 1501 1500 1499 1498 1498 1499 1500 1502 1503 1505 1507 1507 1506 1507 1508 1509 1510 1510 1511 1512 1514 1516 1519 1521 1523 1525
1526 1530 1530 1532 1523 1520 1521 1524 1512 1502 1508 1509 1512 1511 1513 1512 1511 1511 1511 1510 1509 1507 1506 1505 1504 1502 1500 1498 1499 1500 1500 1502 1501 1504 1505 1506 1505 1504 1505 1507 1508 1507 1506 1508 1511 1512 1514 1516 1518
1530 1520 1521 1523 1529 1538 1524 1539 1515 1506 1513 1514 1515 1514 1514 1514 1513 1514 1514 1513 1513 1513 1512 1510 1508 1506 1504 1504 1501 1498 1499 1500 1501 1501 1501 1502 1502 1503 1503 1502 1503 1503 1503 1503 1504 1507 1508 1510 1510
1523 1519 1521 1521 1527 1530 1529 1540 1516 1508 1515 1514 1513 1513 1516 1516 1515 1514 1515 1517 1516 1516 1516 1514 1512 1510 1508 1506 1504 1502 1500 1500 1499 1499 1500 1500 1498 1498 1500 1499 1498 1497 1497 1498 1499 1500 1501 1502 1504
1517 1519 1521 1525 1533 1547 1524 1529 1514 1504 1505 1514 1515 1517 1517 1517 1519 1518 1519 1520 1520 1520 1519 1517 1515 1513 1511 1509 1508 1505 1502 1502 1501 1498 1497 1497 1498 1496 1495 1494 1495 1493 1490 1491 1492 1494 1494 1495 1496
1517 1527 1541 1546 1553 1537 1518 1522 1507 1497 1497 1506 1514 1517 1518 1519 1520 1520 1521 1522 1522 1521 1521 1519 1516 1512 1511 1511 1511 1509 1505 1504 1502 1500 1498 1497 1497 1495 1494 1492 1491 1489 1485 1485 1486 1487 1487 1487 1487
1519 1520 1538 1545 1547 1538 1521 1524 1504 1510 1505 1511 1519 1519 1520 1520 1522 1522 1522 1521 1522 1523 1521 1521 1518 1514 1513 1512 1511 1510 1509 1507 1505 1502 1500 1499 1497 1494 1492 1491 1489 1487 1481 1479 1479 1479 1479 1481 1479
1514 1521 1518 1529 1551 1547 1522 1512 1520 1517 1514 1516 1522 1520 1520 1520 1523 1522 1522 1521 1521 1521 1521 1519 1518 1516 1514 1513 1511 1511 1510 1511 1510 1505 1502 1500 1497 1494 1491 1489 1488 1483 1477 1475 1473 1473 1472 1473 1473
1509 1512 1526 1535 1550 1553 1522 1515 1508 1519 1517 1518 1520 1519 1519 1520 1522 1521 1520 1520 1520 1519 1519 1519 1516 1515 1514 1513 1513 1513 1512 1511 1508 1507 1503 1498 1495 1494 1491 1488 1484 1480 1475 1472 1470 1468 1467 1466 1465
1513 1514 1514 1518 1526 1533 1541 1515 1506 1509 1511 1513 1514 1514 1515 1516 1517 1518 1518 1517 1518 1519 1518 1517 1518 1514 1513 1513 1512 1512 1512 1507 1507 1504 1500 1497 1493 1491 1487 1483 1479 1476 1470 1470 1468 1466 1463 1460 1459
1507 1511 1512 1525 1524 1527 1519 1510 1506 1507 1506 1506 1510 1510 1511 1512 1513 1514 1515 1516 1517 1517 1518 1518 1514 1513 1511 1511 1510 1507 1508 1503 1501 1499 1496 1494 1491 1487 1482 1477 1476 1472 1467 1468 1465 1462 1459 1455 1454